EZY19DV EGGP-EGJJ

Flight info

Callsign EZY19DV
Flight time N/A
Altitude 33000
Route NANTI L8 STAFA P18 TELBA L151 KIDLI UN859 CPT Y321 PEPIS/N0457F320 Q41 SAM N63 LELNA
Aircraft A320/M-SDE3FGHIRWY/LB1

Departure

Time 2026-05-04 06:25
Airport Liverpool John Lennon Airport (EGGP)

Arrival

Time N/A
Airport Jersey Airport (EGJJ)
Time Latitude Longitude Altitude Speed Heading
2026-05-04 05:54 53.33632 -2.85190 86 ft 0 kts 266°
2026-05-04 06:17 53.33632 -2.85170 89 ft 3 kts 265°
2026-05-04 06:17 53.33634 -2.85131 85 ft 3 kts 266°
2026-05-04 06:17 53.33635 -2.85100 87 ft 3 kts 259°
2026-05-04 06:17 53.33641 -2.85075 90 ft 3 kts 193°
2026-05-04 06:18 53.33660 -2.85075 90 ft 3 kts 175°
2026-05-04 06:18 53.33669 -2.85076 89 ft 0 kts 175°
2026-05-04 06:20 53.33656 -2.85074 90 ft 3 kts 175°
2026-05-04 06:20 53.33637 -2.85072 89 ft 2 kts 175°
2026-05-04 06:21 53.33517 -2.85246 86 ft 21 kts 266°
2026-05-04 06:21 53.33504 -2.85537 84 ft 26 kts 266°
2026-05-04 06:22 53.33489 -2.85846 84 ft 27 kts 265°
2026-05-04 06:22 53.33474 -2.86170 84 ft 29 kts 266°
2026-05-04 06:25 53.31456 -2.76188 2542 ft 217 kts 147°
2026-05-04 06:25 53.30117 -2.74798 2909 ft 238 kts 147°
2026-05-04 06:26 53.28643 -2.73242 3371 ft 259 kts 146°
2026-05-04 06:26 53.27104 -2.71603 4190 ft 265 kts 146°
2026-05-04 06:26 53.25541 -2.69929 5103 ft 268 kts 146°
2026-05-04 06:26 53.23958 -2.68226 5980 ft 272 kts 146°
2026-05-04 06:27 53.17409 -2.61111 9269 ft 289 kts 146°
2026-05-04 06:28 53.15750 -2.59180 10060 ft 293 kts 145°
2026-05-04 06:28 53.14046 -2.57146 10449 ft 313 kts 144°
2026-05-04 06:28 53.12215 -2.54941 10692 ft 336 kts 144°
2026-05-04 06:28 53.10263 -2.52599 11037 ft 353 kts 145°
2026-05-04 06:29 53.08252 -2.50206 11695 ft 358 kts 145°
2026-05-04 06:29 53.06209 -2.47789 12417 ft 362 kts 145°
2026-05-04 06:29 53.04149 -2.45365 13138 ft 365 kts 145°
2026-05-04 06:29 53.02062 -2.42915 13850 ft 369 kts 145°
2026-05-04 06:30 52.99962 -2.40454 14471 ft 372 kts 145°
2026-05-04 06:30 52.97848 -2.37982 15098 ft 374 kts 146°
2026-05-04 06:30 52.96410 -2.36300 15543 ft 375 kts 145°
2026-05-04 06:30 52.93569 -2.32977 16393 ft 379 kts 145°
2026-05-04 06:31 52.91408 -2.30452 17034 ft 382 kts 145°
2026-05-04 06:31 52.89150 -2.28129 17650 ft 384 kts 154°
2026-05-04 06:31 52.86646 -2.26573 18255 ft 386 kts 166°
2026-05-04 06:31 52.84857 -2.26028 18632 ft 388 kts 174°
2026-05-04 06:32 52.81287 -2.26193 19325 ft 391 kts 189°